FW1418 Weather Reports


Display with metric or nautical units.
time (UTC)temp
F
wind
direction
speed
MPH
gust
MPH
rain 1hr
in
rain 24hr
in
rain mn
in
humidity
%
barometer
mb
20260831160019 76 228 5.0 13.0 0.00 0.22 0.22 90 1012.3
20260831154512 74 247 3.0 14.0 0.00 0.22 0.22 94 1012.6
20260831153008 73 281 2.0 9.0 0.00 0.22 0.22 100 1012.8
20260831151508 72 222 2.0 6.0 0.00 0.22 0.22 100 1013.0
20260831150005 72 209 1.0 4.0 0.00 0.22 0.22 100 1013.2
20260831144503 71 190 0.0 2.0 0.00 0.22 0.22 100 1013.6
20260831143002 70 202 0.0 4.0 0.00 0.22 0.22 100 1014.0
20260831141501 70 170 0.0 4.0 0.00 0.22 0.22 100 1014.3
20260831140100 70 200 1.0 4.0 0.00 0.22 0.22 100 1014.5
20260831134606 70 155 1.0 3.0 0.02 0.22 0.22 100 1014.4
20260831133059 69 155 1.0 2.0 0.06 0.22 0.22 100 1014.2
20260831131602 69 156 3.0 5.0 0.11 0.22 0.22 100 1014.2
20260831130105 69 200 0.0 5.0 0.14 0.22 0.22 100 1014.1
20260831124558 69 246 3.0 7.0 0.14 0.20 0.20 100 1014.3
20260831123057 69 246 1.0 7.0 0.10 0.16 0.16 100 1014.4
20260831121556 69 267 3.0 9.0 0.04 0.10 0.10 100 1014.4
20260831120055 69 217 1.0 5.0 0.02 0.08 0.08 100 1013.8
20260831114556 69 211 1.0 4.0 0.00 0.06 0.06 100 1013.0
20260831113057 68 219 2.0 5.0 0.00 0.06 0.06 100 1012.8
20260831111555 68 218 2.0 5.0 0.00 0.06 0.06 100 1012.8
20260831110053 68 196 1.0 3.0 0.00 0.06 0.06 100 1012.8
20260831104552 68 196 0.0 2.0 0.00 0.06 0.06 100 1012.8
20260831103051 68 196 0.0 2.0 0.00 0.06 0.06 100 1012.7
20260831101548 68 196 0.0 2.0 0.00 0.06 0.06 100 1013.2
20260831100104 68 196 0.0 0.0 0.00 0.06 0.06 100 1013.6
20260831094549 68 196 0.0 2.0 0.00 0.06 0.06 100 1013.7
20260831093055 68 196 0.0 0.0 0.00 0.06 0.06 100 1014.1
20260831091546 68 196 0.0 1.0 0.00 0.06 0.06 100 1014.1
20260831090056 68 196 0.0 1.0 0.00 0.06 0.06 100 1014.4
20260831084544 68 196 0.0 0.0 0.00 0.06 0.06 100 1014.4
20260831083101 68 196 0.0 3.0 0.00 0.06 0.06 100 1014.5
20260831081553 68 196 1.0 3.0 0.02 0.06 0.06 100 1014.2
20260831080111 68 196 0.0 1.0 0.06 0.06 0.06 100 1014.1
20260831074543 68 196 0.0 1.0 0.06 0.06 0.06 100 1014.1
20260831073041 69 196 0.0 1.0 0.06 0.06 0.06 100 1014.2
20260831071545 69 196 1.0 3.0 0.04 0.04 0.04 100 1014.2
20260831070039 68 179 0.0 2.0 0.00 0.00 0.00 100 1014.1
20260831064539 68 119 0.0 0.0 0.00 0.00 0.00 99 1013.6
20260831063037 69 119 0.0 0.0 0.00 0.00 0.00 99 1013.6
20260831061538 69 119 0.0 0.0 0.00 0.00 0.00 99 1013.8
20260831060032 69 119 0.0 0.0 0.00 0.00 0.00 99 1014.2
20260831054532 69 119 0.0 0.0 0.00 0.00 0.00 98 1014.5
20260831053043 69 119 0.0 0.0 0.00 0.00 0.00 98 1014.4
20260831051533 69 119 0.0 2.0 0.00 0.00 0.00 98 1014.4
20260831050028 69 119 0.0 3.0 0.00 0.00 0.00 98 1014.2
20260831044551 70 119 1.0 3.0 0.00 0.00 0.00 97 1014.2
20260831043027 70 110 1.0 3.0 0.00 0.00 0.00 97 1014.3
20260831041532 70 110 2.0 6.0 0.00 0.00 0.00 97 1014.4
20260831040024 70 111 2.0 6.0 0.00 0.08 0.00 97 1014.1
20260831034523 70 115 2.0 7.0 0.00 0.08 0.00 97 1014.2
20260831033026 70 123 2.0 7.0 0.00 0.08 0.00 97 1014.1
20260831031532 70 119 2.0 8.0 0.00 0.08 0.00 98 1014.3
20260831030022 70 119 3.0 8.0 0.00 0.26 0.00 98 1014.4
20260831024522 70 107 3.0 7.0 0.00 0.26 0.00 99 1014.6
20260831023021 70 113 4.0 7.0 0.00 0.26 0.00 99 1014.5
20260831021522 70 131 2.0 7.0 0.00 0.26 0.00 99 1014.6
20260831020020 70 103 3.0 7.0 0.00 0.28 0.00 99 1014.6
20260831014519 70 97 1.0 4.0 0.00 0.28 0.00 98 1014.4
20260831013020 70 92 1.0 6.0 0.00 0.28 0.00 98 1014.3
20260831011521 70 84 2.0 6.0 0.00 0.28 0.00 97 1014.0
20260831010018 70 94 2.0 6.0 0.00 0.30 0.00 97 1014.0
20260831004518 70 107 2.0 6.0 0.00 0.30 0.00 97 1013.9
20260831003020 70 119 1.0 4.0 0.00 0.30 0.00 98 1014.0
20260831001517 70 120 1.0 6.0 0.00 0.30 0.00 98 1013.9
20260831000021 70 104 2.0 4.0 0.00 0.31 0.00 98 1013.8
20260830234516 70 105 0.0 3.0 0.00 0.31 0.00 97 1014.1
20260830233016 70 105 0.0 3.0 0.00 0.31 0.00 97 1013.9
20260830231517 70 126 2.0 4.0 0.00 0.31 0.00 97 1014.0
20260830230015 71 130 1.0 7.0 0.00 0.32 0.00 97 1014.0
20260830224515 71 119 1.0 4.0 0.00 0.32 0.00 97 1013.9
20260830223014 71 134 0.0 3.0 0.00 0.32 0.00 97 1013.8
20260830221513 71 136 1.0 3.0 0.00 0.32 0.00 96 1014.0
20260830220013 70 78 0.0 3.0 0.00 0.32 0.00 96 1014.0
20260830214513 70 78 1.0 2.0 0.00 0.32 0.00 96 1014.4
20260830213012 70 78 1.0 4.0 0.00 0.32 0.00 95 1014.4
20260830211511 71 115 1.0 2.0 0.00 0.32 0.00 94 1014.4
20260830210011 72 117 2.0 4.0 0.00 0.32 0.00 93 1014.2
20260830204517 72 123 1.0 4.0 0.00 0.32 0.00 92 1014.0
20260830203013 72 123 1.0 6.0 0.00 0.32 0.00 92 1014.0
20260830201509 72 98 1.0 3.0 0.00 0.32 0.00 92 1013.9
20260830200008 72 98 1.0 4.0 0.00 0.32 0.00 92 1014.0
20260830194508 72 98 2.0 4.0 0.00 0.32 0.00 91 1014.0
20260830193015 73 138 1.0 4.0 0.00 0.32 0.00 89 1014.0
20260830191520 73 111 4.0 7.0 0.00 0.32 0.00 88 1014.0
20260830190006 74 128 2.0 5.0 0.00 0.32 0.00 89 1013.9
20260830184506 74 111 3.0 6.0 0.00 0.32 0.00 88 1013.9
20260830183005 75 163 1.0 5.0 0.00 0.32 0.00 86 1014.0
20260830181503 75 207 1.0 3.0 0.00 0.32 0.00 86 1014.1
20260830180005 74 215 0.0 3.0 0.00 0.32 0.00 87 1014.1
20260830174612 74 218 0.0 2.0 0.00 0.32 0.00 88 1014.0
20260830173058 74 226 1.0 4.0 0.00 0.32 0.00 87 1014.2
20260830171557 74 227 2.0 5.0 0.00 0.32 0.00 87 1014.3
20260830170056 74 214 0.0 3.0 0.00 0.32 0.00 87 1014.3
20260830164554 73 213 1.0 6.0 0.00 0.32 0.00 87 1014.3
20260830163051 74 249 2.0 6.0 0.00 0.32 0.00 87 1014.4
20260830161600 73 204 2.0 5.0 0.00 0.32 0.00 89 1014.3